Regional Weather Roundup
Issued by NWS

Home | Current Version | Previous Version | Graphics & Text | Print | Product List | Glossary On
Versions: 1 2 3 4 5 6 7 8 9 10 11 12 13 14 15 16 17 18 19 20 21 22 23 24 25 26 27 28 29 30 31 32 33 34 35 36 37 38 39 40 41 42 43 44 45 46 47 48 49 50
000
ASUS45 KTFX 210619
RWRMT
MONTANA HOURLY WEATHER ROUNDUP
NATIONAL WEATHER SERVICE GREAT FALLS MT
1119 PM MST SAT DEC 20 2014

NOTE: "FAIR" INDICATES FEW OR NO CLOUDS BELOW 12000 FEET WITH NO
SIGNIFICANT WEATHER AND/OR OBSTRUCTIONS TO VISIBILITY.

* THESE STATIONS ARE NOT UNDER NWS QUALITY CONTROL. THEY DO NOT
   REPORT WEATHER SUCH AS PRECIPITATION OR FOG.

MTZ001>007-043-210700-
WEST OF THE DIVIDE
CITY           SKY/WX    TMP DP  RH WIND       PRES   REMARKS
KALISPELL      LGT SNOW  32  32 100 CALM      29.60F
MISSOULA       FOG       30  30 100 CALM      29.67F
BUTTE          CLOUDY    34  25  70 S8        29.69F WCI  27
MULLAN PASS    SNOW      30  27  89 S8        29.54F VSB M1/4 WCI  22
* ESSEX        N/A       31  30  96 N/A        N/A
* EUREKA APT   MOCLDY    37  30  76 SE17G22   29.54F WCI  27
* HAMILTON APT CLOUDY    39  34  82 S13       29.65F WCI  31
* LIBBY APT    CLOUDY   N/A N/A N/A CALM       N/A   VSB 3
* LINCOLN      N/A       32  28  85 W5G18      N/A   WCI  27
* LOOKOUT PASS N/A       32  32 100 S4         N/A
* POLSON       N/A       33  33 100 SE1        N/A
* SEELEY LAKE  N/A       27  26  96 W1         N/A
* THOMP F APT  CLOUDY    29  28  96 S5G11      N/A   WCI  24
$$

MTZ008-052>055-210700-
SOUTHWEST MONTANA
CITY           SKY/WX    TMP DP  RH WIND       PRES   REMARKS
BOZEMAN        CLOUDY    32  27  82 S5        29.71F WCI  27
DILLON         CLOUDY    37  27  67 S9        29.71F WCI  30
* W YELLOWSTON CLOUDY    29  27  92 SW5G15     N/A   WCI  24
* THREE FORKS  CLOUDY    43  43 100 SW20G31    N/A
* BOULDER HILL N/A       34  21  59 S16        N/A   WCI  24
* MONIDA PASS  N/A       27  27 100 SE19       N/A   WCI  14
* RAYNOLDS PAS N/A       30  15  54 S11G16     N/A   WCI  21
* WHITEHALL    N/A       41  24  51 W13G29     N/A
* WISE RIVER   N/A       31  28  89 NW4G16     N/A
$$

MTZ009>010-012-014-046-048-049-054-210700-
EAST SLOPES AND CENTRAL MONTANA
CITY           SKY/WX    TMP DP  RH WIND       PRES   REMARKS
CUT BANK       CLOUDY    32  25  75 SE10      29.47F WCI  24
GREAT FALLS    CLOUDY    39  27  62 S14       29.53F WCI  31
HELENA         CLOUDY    36  27  70 CALM      29.64F
MALMSTROM AFB  CLOUDY    41  27  58 SW18G30   29.56F
* CONRAD       CLOUDY    32  28  85 S5         N/A   WCI  27
* DEARBORN     N/A       46  26  46 S17G26     N/A
* EAST GLACIER N/A       37  27  67 W31G40     N/A   WCI  24
* MONARCH      N/A       36  17  46 SW12G26    N/A   WCI  28
* PENDROY      N/A       31  28  89 S9         N/A   WCI  23
* ROGERS PASS  N/A       31  27  85 SE15G29    N/A   WCI  20
* SWEET GRASS  N/A       27  20  75 S16        N/A   WCI  15
* WHITE SULPH  N/A       38  24  57 S16G27     N/A   WCI  29
$$

MTZ011-013-016-021-035-040-045-047-050-051-210700-
NORTH CENTRAL MONTANA
CITY           SKY/WX    TMP DP  RH WIND       PRES   REMARKS
HAVRE          PTCLDY    28  21  75 CALM      29.55F
LEWISTOWN      MOCLDY    39  25  57 SW18      29.60F WCI  30
* N BAR RANCH  CLOUDY    39  23  53 SW10G17   29.63F WCI  32
* CHINOOK      CLEAR     25  19  78 E6        29.57F WCI  18
* CHESTER      N/A       25  22  88 E3         N/A
* DENTON       N/A       34  24  67 S11        N/A   WCI  26
* GEYSER       N/A       33  20  59 NE5        N/A   WCI  28
* JUDITH GAP   N/A       29  25  85 SE16       N/A   WCI  17
* LOMA         N/A       29  23  78 NE7        N/A   WCI  22
$$

MTZ017>020-022>027-061-062-210700-
NORTHEAST MONTANA
CITY           SKY/WX    TMP DP  RH WIND       PRES   REMARKS
GLASGOW        CLEAR     25  19  78 E12       29.64F WCI  14
GLENDIVE       PTCLDY    25  19  78 S8        29.70F WCI  16
JORDAN         CLEAR     23  19  85 SE3       29.64F
SIDNEY         CLEAR     27  21  78 CALM      29.72F
WOLF POINT     CLEAR     18  14  84 NE3       29.68F
* BEAVER HILL  N/A       31  21  66 S10        N/A   WCI  22
* CIRCLE       N/A       30  23  75 N/A        N/A
* LINDSAY DVD  N/A       32  21  64 S4         N/A
* PLENTYWOOD A CLEAR     27  21  78 E3        29.66F
* POPLAR APT   CLEAR     27  21  78 CALM      29.68F
* SACO         N/A       20  17  88 NE6        N/A   WCI  12
$$

MTZ028>042-056>058-210700-
SOUTHCENTRAL AND SOUTHEAST MONTANA
CITY           SKY/WX    TMP DP  RH WIND       PRES   REMARKS
BAKER          CLEAR     25  21  85 CALM      29.72F
BILLINGS       MOCLDY    32  21  64 SW16      29.69F WCI  21
LIVINGSTON     CLOUDY    45  23  42 SW22G29   29.66F
MILES CITY     CLEAR     28  21  75 S8        29.69F WCI  20
* FORSYTH APT  CLEAR     32  25  75 CALM      29.68F
* LAUREL APT   PTCLDY    30  16  56 SW5        N/A   WCI  25
* ROUNDUP APT  MOCLDY    36  21  54 S10G16     N/A   WCI  29
* ALZADA       N/A       29  22  75 N/A        N/A
* HYSHAM       N/A       36  19  50 W4G9       N/A
* LAME DEER    N/A       31  23  72 SW4        N/A
* REED POINT   N/A       26  23  88 E2         N/A
* ROSCOE HILL  N/A       41  12  30 S14G27     N/A
$$

REGIONAL REPORTS...DAKOTAS
CITY           SKY/WX    TMP DP  RH WIND       PRES   REMARKS
WILLISTON      CLEAR     21  19  92 CALM      29.71F
DICKINSON      PTCLDY    28  19  69 CALM      29.71F
BEACH          CLEAR     23  21  92 S6        29.72F WCI  16
CROSBY         CLEAR     23  23 100 SW12      29.68F WCI  11
TIOGA          CLEAR     25  25 100 W7        29.72S WCI  17
WATFORD CITY   CLEAR     23  21  92 SW6       29.69F WCI  16
BISMARCK       PTCLDY    19  18  96 CALM      29.78F
GRAND FORKS    CLOUDY    30  28  92 S16       29.83F WCI  19
FARGO          FOG       32  28  85 S15       29.88F WCI  22
BUFFALO SD     PTCLDY    32  25  75 SE6       29.68F WCI  26
RAPID CITY     MOCLDY    32  25  75 SE6       29.77F WCI  26
$$

REGIONAL REPORTS...WYOMING/IDAHO/WASHINGTON
CITY           SKY/WX    TMP DP  RH WIND       PRES   REMARKS
GILLETTE       CLEAR     34  19  54 SW16      29.74F WCI  24
SHERIDAN       CLEAR     27  18  69 S5        29.71F WCI  21
CODY           PTCLDY    41  23  49 S13G22    29.72F
YELLOWSTONE LA CLOUDY    27  23  85 VRB3      29.85F
SALMON         CLOUDY    37  28  70 SE10G17   29.76F WCI  30
MULLAN PASS    SNOW      30  27  89 S8        29.54S VSB M1/4 WCI  22
SAND POINT     LGT RAIN  36  36 100 W5        29.55F WCI  32
SPOKANE        CLOUDY    43  41  93 S14       29.51F
$$

REGIONAL REPORTS...ALBERTA
CITY           SKY/WX    TMP DP  RH WIND       PRES   REMARKS
CALGARY        MOCLDY    27  21  78 VRB2      29.30F
MEDICINE HAT   CLEAR     25  21  85 SW6       29.46F WCI  18
EDMONTON       FAIR      23  16  74 SE9       29.32F WCI  13
WATERTON GATE  N/A       39  28  65 SW29G43    N/A   WCI  27
CARDSTON       N/A       36  28  73 S8         N/A   WCI  30
MILK RIVER     N/A       27  23  85 S10        N/A   WCI  18
$$

REGIONAL REPORTS...SASKATCHEWAN
CITY           SKY/WX    TMP DP  RH WIND       PRES   REMARKS
SWIFT CURRENT  CLEAR     23  19  85 S9        29.54F WCI  13
REGINA         FOG       18  18 100 SE5       29.63F VSB M1/4 WCI  11
VAL MARIE      N/A       16  14  92 W1         N/A
ASSINIBOIA     N/A       23  19  85 SW7        N/A   WCI  15
CORONACH       N/A       25  18  75 SE5        N/A   WCI  19

$$



USA.gov is the U.S. government's official web portal to all federal, state and local government web resources and services.